Regional Weather Roundup
Issued by NWS

Home | Current Version | Previous Version | Graphics & Text | Print | Product List | Glossary Off
Versions: 1 2 3 4 5 6 7 8 9 10 11 12 13 14 15 16 17 18 19 20 21 22 23 24 25 26 27 28 29 30 31 32 33 34 35 36 37 38 39 40 41 42 43 44 45 46 47 48 49 50

000
ASUS43 KLOT 220208
RWRIL

ILLINOIS REGIONAL WEATHER ROUNDUP
NATIONAL WEATHER SERVICE CHICAGO/ROMEOVILLE IL
800 PM CST TUE NOV 21 2017

NOTE: "FAIR" INDICATES FEW OR NO CLOUDS BELOW 12,000 FEET WITH NO
SIGNIFICANT WEATHER AND/OR OBSTRUCTIONS TO VISIBILITY.

* THESE STATIONS ARE NOT UNDER NWS QUALITY CONTROL. THEY ALSO MAY NOT
  REPORT WEATHER SUCH AS PRECIPITATION OR FOG.

ILZ001-002-007-009-015-016-024-220300-
NORTHWEST ILLINOIS

CITY           SKY/WX    TMP DP  RH WIND       PRES   REMARKS
MOLINE         CLEAR     29  17  61 NW12      30.23R WCI  19
STERLING*      CLEAR     28  19  69 NW9       30.21R WCI  19
SAVANNA*       CLEAR     29  15  56 NW8       30.23R WCI  21
$$

ILZ003-004-008-010-011-017-018-220300-
NORTH CENTRAL ILLINOIS

CITY           SKY/WX    TMP DP  RH WIND       PRES   REMARKS
ROCKFORD       CLEAR     27  14  58 NW7       30.20R WCI  19
FREEPORT*      CLEAR     24  16  69 NW7       30.21R WCI  16
ROCHELLE*      CLEAR     27  20  76 NW6       30.19R WCI  20
DE KALB*       CLEAR     27  18  67 NW6       30.17R WCI  21
PERU*          CLEAR     28  21  77 NW9       30.20R WCI  19
$$

ILZ005-006-012>014-019>023-220300-
NORTHEAST ILLINOIS

CITY           SKY/WX    TMP DP  RH WIND       PRES   REMARKS
CHICAGO-OHARE  PTCLDY    30  15  53 NW15      30.15R WCI  19
CHICAGO-MIDWAY PTCLDY    32  16  51 N15       30.15R WCI  22
AURORA         CLEAR     27  19  72 NW8       30.17R WCI  19
LANSING*       CLEAR     31  20  62 NW8       30.14R WCI  24
JOLIET*        CLEAR     32  19  58 N8        30.17R WCI  25
WAUKEGAN       CLEAR     28  15  58 NW7       30.14R WCI  21
DUPAGE AIRPORT CLEAR     28  16  60 NW8       30.15R WCI  20
KANKAKEE*      CLEAR     31  23  72 NW7       30.16R WCI  24
WHEELING       CLEAR     30  16  56 NW8       30.17R WCI  22
MORRIS*        CLEAR     30  22  73 NW7       30.16R WCI  23
ROMEOVILLE*    CLEAR     30  19  64 NW12      30.16R WCI  20
NORTHERLY ISL    N/A     31  16  54 NW10        N/A  WCI  22
$$

LMZ740>746-220300-
SOUTHERN LAKE MICHIGAN

STATION/POSITION SKY/WX   TEMP    WIND        PRES    VSBY  WAVE
                          AIR SEA DIR/SP/G                  HT/PER
                          (F)     (DEG/KT/KT) (MB)    (MI)  (FT/S)
SOUTHERN BUOY              34 47  340/ 19/ 25 1019.2          7/ 7
HARRISON CRIB              32     320/ 22/ 24   N/A
BURNHAM HARBOR             31     340/ 10/ 19   N/A
CALUMET HARBOR             33     300/  9/ 16 1019.6R
BURNS HARBOR               36     320/ 14     1020.0R
MICHIGAN CITY              34     320/ 21/ 29   N/A
$$

ILZ025>027-034>036-040-047-049-050-058-095>099-220300-
WEST-CENTRAL ILLINOIS

CITY           SKY/WX    TMP DP  RH WIND       PRES   REMARKS
QUINCY         CLEAR     29  20  69 NW8       30.26R WCI  21
GALESBURG*     CLEAR     27  21  77 NW10      30.24S WCI  18
MACOMB*        CLEAR     28  21  76 NW10      30.27R WCI  18
JACKSONVILLE*  CLEAR     28  21  75 NW8       30.25R WCI  20
PITTSFIELD*    CLEAR     31  21  67 NW9       30.27R WCI  23
$$

ILZ028>032-037-038-041>044-048-051>054-059>061-220300-
CENTRAL ILLINOIS

CITY           SKY/WX    TMP DP  RH WIND       PRES   REMARKS
PONTIAC        CLEAR     31  25  80 NW8       30.18S WCI  23
BLOOMINGTON    CLEAR     30  21  69 NW10      30.18R WCI  21
DECATUR        CLEAR     31  21  66 NW9       30.20R WCI  23
PEORIA         CLEAR     30  19  63 NW8       30.22R WCI  22
LACON*         CLEAR     29  21  71 NW9       30.21R WCI  20
LINCOLN*       CLEAR     31  23  71 NW5       30.21S WCI  26
SPRINGFIELD    CLEAR     31  21  66 NW9       30.23R WCI  23
TAYLORVILLE    CLEAR     31  22  70 NW9       30.22R WCI  23
$$

ILZ033-039-045-046-055>057-062-063-220300-
EAST-CENTRAL ILLINOIS

CITY           SKY/WX    TMP DP  RH WIND       PRES   REMARKS
CHAMPAIGN      CLEAR     30  24  78 NW9       30.18R WCI  22
DANVILLE*      CLEAR     31  25  80 NW9       30.13R WCI  23
RANTOUL*       CLEAR     32  26  78 NW7       30.17R WCI  26
MATTOON        CLEAR     31  24  75 NW13      30.17R WCI  21
PARIS*         CLEAR     31  26  81 NW12      30.17S WCI  21
$$

ILZ079-100>102-220300-
SOUTHWEST ILLINOIS

CITY           SKY/WX    TMP DP  RH WIND       PRES   REMARKS
ALTON          PTCLDY    34  23  64 NW10G18   30.24R WCI  26
BELLEVILLE     CLEAR     38  21  49 NW17G24   30.21R WCI  29
CAHOKIA*       CLEAR     37  21  52 N16       30.23R WCI  28
SPARTA*        CLEAR     41  24  50 NW12G18   30.20R
$$

ILZ064>066-069>071-074>076-080>082-084>086-088>090-092>094-220300-
SOUTH-CENTRAL ILLINOIS

CITY           SKY/WX    TMP DP  RH WIND       PRES   REMARKS
CARBONDALE     CLEAR     43  25  49 N9        30.17R
CAIRO*         CLEAR     46  37  71 N12       30.12R
EFFINGHAM*     CLEAR     35  25  67 NW15G23   30.20R WCI  25
MARION         PTCLDY    45  25  44 N9G18     30.17R
MT. VERNON     PTCLDY    41  25  53 VRB5      30.17R
CENTRALIA*     CLEAR     38  27  63 N20       30.19R WCI  28
SALEM*         CLEAR     37  24  57 NW17      30.19R WCI  28
METROPOLIS*    CLEAR     48  36  64 N12       30.12R
$$

ILZ067-068-072-073-078-083-087-091-220300-
SOUTHEAST ILLINOIS

CITY           SKY/WX    TMP DP  RH WIND       PRES   REMARKS
LAWRENCEVILLE  CLOUDY    41  28  60 NW22      30.14R
FLORA*         CLOUDY    39  24  56 N15       30.17R WCI  30
FAIRFIELD*     CLOUDY    41  26  54 CALM      30.15R
HARRISBURG*    PTCLDY    43  24  47 N9G17     30.15R
ROBINSON*      CLOUDY    37  27  68 N22G29    30.15R WCI  26
CARMI*         PTCLDY    43  30  59 NW16G23   30.13R
$$

ABBREVIATIONS USED IN REMARKS
   TC - TEMPERATURE IN CELSIUS
  WCI - WIND CHILL INDEX
   HX - HEAT INDEX
  VSB - VISIBILITY
$$




USA.gov is the U.S. government's official web portal to all federal, state and local government web resources and services.